Flag Weather past 2 weeks in Warsaw, Poland

Now
34 °F

Light rain. Passing clouds.


Feels Like: 28 °F
Forecast: 29 / 33 °F
Wind: 7 mph from Southeast

Location: Warsaw Okecie Airport

Current Time: Nov 26, 2014 at 7:55:41 PM

Latest Report: Nov 26, 2014 at 7:30 PM


Visibility: 4 mi

Pressure: 30.27 "Hg

Humidity: 100%

Dew point: 34 °F

Location of WarsawLocation

Historic Weather in Warsaw — Graph

°F

Warsaw temperature yesterday

Maximum temperature yesterday: 39 °F (at 11:30 AM)
Minimum temperature yesterday: 32 °F (at 12:00 AM)
Average temperature yesterday: 36 °F

Past Weeks' High & Low Weather Summary

 TemperatureHumidityPressure
High54 °F (Nov 11, 6:00 PM)100% (Nov 11, 9:00 PM)30.48 "Hg (Nov 11, 9:00 PM)
Low32 °F (Nov 23, 5:30 AM)66% (Nov 24, 12:30 PM)29.89 "Hg (Nov 16, 11:30 AM)
Average39 °F91%30.16 "Hg
* Reported Nov 11 6:00 PM — Nov 26 6:30 PM, Warsaw, Weather by CustomWeather, © 2014

Note: Actual official high and low records may vary slightly from our data, if they occured in-between our weather recording intervals... More about our weather records

Advertising

Warsaw weather history for previous 24 hours

 ConditionsComfort  
Time TempWeatherWind HumidityBarometerVisibility
6:30 PM
Nov 26
36 °FLight rain. Passing clouds.7 mph93%30.27 "Hg4 mi
6:00 PM36 °FPassing clouds.7 mph93%30.27 "Hg5 mi
5:30 PM36 °FLight rain. Passing clouds.7 mph93%30.27 "Hg6 mi
5:00 PM36 °FPassing clouds.5 mph93%30.27 "HgN/A
4:30 PM36 °FPassing clouds.5 mph93%30.27 "Hg6 mi
4:00 PM36 °FPassing clouds.5 mph93%30.27 "Hg4 mi
3:30 PM36 °FPartly sunny.5 mph93%30.27 "Hg4 mi
3:00 PM37 °FFog.6 mph87%30.27 "Hg3 mi
2:30 PM37 °FFog.6 mph93%30.30 "Hg3 mi
2:00 PM37 °FPartly sunny.5 mph93%30.30 "Hg4 mi
1:30 PM37 °FPartly sunny.6 mph93%30.30 "Hg4 mi
1:00 PM37 °FPartly sunny.5 mph93%30.30 "Hg5 mi
12:00 PM37 °FPartly sunny.6 mph93%30.30 "Hg4 mi
11:30 AM37 °FFog.5 mph100%30.30 "Hg3 mi
11:00 AM37 °FFog.7 mph100%30.30 "Hg2 mi
10:30 AM37 °FFog.5 mph100%30.30 "Hg3 mi
10:00 AM37 °FFog.2 mph100%30.30 "Hg2 mi
9:30 AM37 °FFog.3 mph100%30.33 "Hg1 mi
9:00 AM37 °FFog.6 mph100%30.30 "Hg1 mi
8:30 AM37 °FFog.5 mph100%30.30 "Hg1 mi
8:00 AM37 °FFog.3 mph100%30.30 "Hg1 mi
7:30 AM37 °FFog.2 mph100%30.30 "Hg1 mi
7:00 AM37 °FFog.5 mph100%30.30 "Hg1 mi
6:30 AM37 °FFog.6 mph100%30.30 "Hg1 mi
6:00 AM37 °FFog.2 mph100%30.30 "Hg3 mi
5:30 AM37 °FFog.No wind93%30.30 "Hg3 mi
5:00 AM37 °FFog.2 mph93%30.30 "Hg3 mi
4:30 AM37 °FFog.1 mph100%30.30 "Hg3 mi
4:00 AM37 °FFog.No wind93%30.30 "Hg3 mi
3:30 AM37 °FFog.1 mph93%30.30 "Hg3 mi
3:00 AM37 °FPassing clouds.No wind93%30.33 "Hg4 mi
2:30 AM37 °FFog.No wind93%30.33 "Hg3 mi
2:00 AM37 °FFog.No wind100%30.33 "Hg3 mi
1:30 AM37 °FFog.2 mph100%30.33 "Hg3 mi
1:00 AM37 °FFog.3 mph93%30.33 "Hg3 mi
12:30 AM37 °FFog.5 mph93%30.33 "Hg3 mi
12:00 AM37 °FPassing clouds.6 mph100%30.33 "Hg4 mi
11:30 PM
Nov 25
37 °FPassing clouds.3 mph93%30.33 "Hg4 mi
11:00 PM37 °FPassing clouds.2 mph93%30.36 "Hg4 mi
10:30 PM37 °FPassing clouds.3 mph93%30.33 "Hg4 mi
10:00 PM37 °FPassing clouds.5 mph100%30.33 "Hg4 mi
9:30 PM37 °FPassing clouds.5 mph100%30.33 "Hg4 mi
9:00 PM37 °FFog.6 mph100%30.33 "Hg3 mi
8:30 PM37 °FPassing clouds.5 mph100%30.33 "Hg4 mi
8:00 PM37 °FFog.3 mph100%30.33 "Hg3 mi
7:30 PM37 °FFog.2 mph100%30.33 "Hg3 mi
7:00 PM39 °FPassing clouds.3 mph93%30.33 "Hg4 mi
Weather by CustomWeather, © 2014

See weather overviewHow to use our weather pages